Hope, British Columbia

5:20 AM PDT on June 29, 2017 (GMT -0700)
Hope

Weather History for CYHE - September, 2012

Change the Weather History Date:

Sunday, September 30, 2012

  Actual Average Record
Temperature  
Mean Temperature 54 °F -  
Max Temperature 68 °F 58 °F 80 °F (2010)
Min Temperature 40 °F 43 °F 40 °F (2012)
Degree Days  
Heating Degree Days 11    
Growing Degree Days 4 (Base 50)    
Moisture  
Dew Point 44 °F    
Average Humidity 78    
Maximum Humidity 100    
Minimum Humidity 35    
Precipitation  
Precipitation 0.00 in 0.25 in - ()
Sea Level Pressure  
Sea Level Pressure 30.38 in    
Wind  
Wind Speed 3 mph ()    
Max Wind Speed 10 mph    
Max Gust Speed 20 mph    
Visibility 6.2 miles    
Events      
Averages and records for this station are not official NWS values.
T = Trace of Precipitation, MM = Missing Value Source: Averaged Metar Reports

Daily Weather History Graph

Daily Weather History Graph

Search for Another Location

Airport or City:

Trip Planner

Search our weather history database for the weather conditions in past years. The results will help you decide how hot, cold, wet, or windy it might be!

Date:

Astronomy

Sep. 30, 2012 Rise Set
Actual Time 7:05 AM PDT 6:45 PM PDT
Civil Twilight 6:33 AM PDT 7:17 PM PDT
Nautical Twilight 5:56 AM PDT 7:54 PM PDT
Astronomical Twilight 5:18 AM PDT 8:31 PM PDT
Moon 6:41 PM PDT (9/30) 7:49 AM PDT (9/30)
Length of Visible Light 12h 43m
Length of Day
11h 40m
Full, 100% of the Moon is Illuminated
Sep 30
Full
Oct 8
Last Quarter
Oct 15
New
Oct 21
First Quarter
Oct 29
Full

Hourly Weather History & Observations

Time (PDT) Temp. Windchill Dew Point Humidity Pressure Visibility Wind Dir Wind Speed Gust Speed Precip Events Conditions
12:00 AM 48.2 °F - 46.4 °F 93% 30.31 in 9.0 mi Calm Calm - N/A   Clear
1:00 AM 46.4 °F - 44.6 °F 93% 30.32 in 9.0 mi Calm Calm - N/A   Clear
2:00 AM 44 °F - 41 °F 87% 30.33 in - NE 2.3 mph - -  
2:00 AM 44.6 °F - 42.8 °F 93% 30.33 in 9.0 mi Calm Calm - N/A   Clear
3:00 AM 44.6 °F - 42.8 °F 93% 30.34 in 9.0 mi Calm Calm - N/A   Clear
4:00 AM 46.4 °F - 44.6 °F 93% 30.35 in 7.0 mi Variable 2.3 mph - N/A   Clear
4:14 AM 44.6 °F - 42.8 °F 93% 30.36 in 4.0 mi Calm Calm - N/A   Clear
4:15 AM 44.6 °F - 42.8 °F 93% 30.36 in 2.5 mi Calm Calm - N/A   Clear
4:33 AM 42.8 °F - 42.8 °F 100% 30.37 in 3.0 mi Calm Calm - N/A   Clear
4:46 AM 42.8 °F - 42.8 °F 100% 30.37 in 9.0 mi SE 2.3 mph - N/A   Clear
5:00 AM 43 °F - 42 °F 93% 30.36 in - NE 1.2 mph - -  
5:00 AM 42.8 °F - 42.8 °F 100% 30.37 in 9.0 mi Calm Calm - N/A   Clear
5:13 AM 42.8 °F 41.1 °F 41.0 °F 93% 30.37 in 4.0 mi ESE 3.5 mph - N/A   Clear
5:22 AM 44.6 °F - 44.6 °F 100% 30.37 in 7.0 mi Calm Calm - N/A   Clear
6:00 AM 42.8 °F 41.1 °F 42.8 °F 100% 30.37 in 9.0 mi East 3.5 mph - N/A   Clear
6:21 AM 44.6 °F 40.7 °F 42.8 °F 93% 30.38 in 5.0 mi ESE 6.9 mph - N/A   Clear
6:31 AM 44.6 °F - 44.6 °F 100% 30.38 in 6.0 mi Variable 2.3 mph - N/A   Clear
6:57 AM 46.4 °F 42.9 °F 44.6 °F 93% 30.40 in 5.0 mi East 6.9 mph - N/A   Clear
7:00 AM 46.4 °F 42.4 °F 44.6 °F 93% 30.40 in 3.0 mi East 8.1 mph - N/A   Clear
7:05 AM 46.4 °F 43.5 °F 44.6 °F 93% 30.40 in 2.5 mi ESE 5.8 mph - N/A   Clear
7:15 AM 46.4 °F 44.3 °F 44.6 °F 93% 30.40 in 3.0 mi East 4.6 mph - N/A   Clear
7:19 AM 46.4 °F 45.2 °F 44.6 °F 93% 30.41 in 6.0 mi ENE 3.5 mph - N/A   Clear
7:50 AM 46.4 °F 42.4 °F 44.6 °F 93% 30.42 in 2.0 mi ESE 8.1 mph - N/A   Clear
7:59 AM 46.4 °F 44.3 °F 44.6 °F 93% 30.42 in 3.0 mi East 4.6 mph - N/A   Clear
8:00 AM 46 °F - 44 °F 90% 30.42 in - ENE 5.8 mph - -  
8:00 AM 46.4 °F 45.2 °F 44.6 °F 93% 30.42 in 3.0 mi ENE 3.5 mph - N/A   Clear
8:03 AM 46.4 °F 44.3 °F 44.6 °F 93% 30.42 in 6.0 mi East 4.6 mph - N/A   Clear
9:00 AM 50.0 °F - 44.6 °F 82% 30.43 in 8.0 mi East 6.9 mph - N/A   Clear
9:19 AM 50.0 °F - 44.6 °F 82% 30.43 in 5.0 mi East 5.8 mph - N/A   Haze
10:00 AM 53.6 °F - 46.4 °F 77% 30.42 in 3.0 mi East 9.2 mph - N/A   Haze
10:04 AM 53.6 °F - 44.6 °F 72% 30.42 in 2.5 mi ESE 10.4 mph - N/A   Haze
10:46 AM 57.2 °F - 44.6 °F 63% 30.41 in 3.0 mi ESE 8.1 mph - N/A   Haze
10:52 AM 59.0 °F - 44.6 °F 59% 30.40 in 2.2 mi ESE 9.2 mph - N/A   Haze
11:00 AM 58 °F - 44 °F 50% 30.39 in - ESE 8.1 mph - -  
11:00 AM 59.0 °F - 44.6 °F 59% 30.40 in 0.8 mi ESE 8.1 mph - N/A   Haze
11:35 AM 60.8 °F - 44.6 °F 55% 30.39 in 4.0 mi SE 4.6 mph - N/A   Haze
11:37 AM 60.8 °F - 44.6 °F 55% 30.39 in 9.0 mi SE 4.6 mph - N/A   Mostly Cloudy
12:00 PM 62.6 °F - 44.6 °F 52% 30.38 in 9.0 mi Variable 3.5 mph - N/A   Partly Cloudy
1:00 PM 64.4 °F - 46.4 °F 52% 30.37 in 9.0 mi WSW 8.1 mph - N/A   Overcast
2:00 PM 66 °F - 47 °F 39% 30.35 in - West 8.1 mph - -  
2:00 PM 66.2 °F - 46.4 °F 49% 30.35 in 9.0 mi WNW 8.1 mph - N/A   Overcast
3:00 PM 68.0 °F - 42.8 °F 40% 30.34 in 9.0 mi WNW 9.2 mph 19.6 mph N/A   Mostly Cloudy
4:00 PM 68.0 °F - 42.8 °F 40% 30.33 in 9.0 mi WNW 8.1 mph - N/A   Partly Cloudy
5:00 PM 65 °F - 44 °F 35% 30.33 in - WNW 8.1 mph - -  
5:00 PM 64.4 °F - 44.6 °F 49% 30.33 in 9.0 mi NW 6.9 mph 19.6 mph N/A   Clear
6:00 PM 64.4 °F - 46.4 °F 52% 30.34 in 9.0 mi West 5.8 mph - N/A   Clear
7:00 PM 62.6 °F - 46.4 °F 55% 30.36 in 9.0 mi WSW 4.6 mph - N/A   Clear
8:00 PM 57 °F - 46 °F 58% 30.37 in - SSW 5.8 mph - -  
8:00 PM 57.2 °F - 46.4 °F 67% 30.37 in 9.0 mi SW 5.8 mph - N/A   Clear
9:00 PM 55.4 °F - 46.4 °F 72% 30.39 in 9.0 mi Variable 2.3 mph - N/A   Clear
10:00 PM 51.8 °F - 46.4 °F 82% 30.38 in 9.0 mi Calm Calm - N/A   Clear
11:00 PM 49 °F - 46 °F 83% 30.38 in - SSW 1.2 mph - -  
11:00 PM 50.0 °F - 46.4 °F 87% 30.38 in 9.0 mi Calm Calm - N/A   Clear